Wind_Speed
39 31 30 26 25 26 26 25 24 22 25 25 26 25 25 25 30 36 30 44 59 64 77 79 78 76 73 77 77 72 74 57 46 54 43 44 42 40 37 42 46 42 42 39
38 28 26 25 24 24 25 28 26 24 24 32 31 26 27 28 25 28 32 32 42 59 72 82 77 66 73 71 73 74 63 53 49 39 36 43 44 46 44 45 46 45 45 44
29 17 25 27 25 26 27 27 24 25 23 29 36 29 31 30 29 24 25 33 36 48 63 77 82 72 66 69 70 67 56 56 50 44 35 20 31 34 38 42 46 47 48 44
25 20 22 26 25 25 28 25 28 30 32 31 33 37 32 28 28 21 22 30 37 37 55 68 81 81 66 68 69 58 63 64 68 47 34 40 35 38 45 51 51 50 49 54
22 22 23 25 25 25 28 31 33 35 37 39 41 42 34 27 20 27 27 28 36 43 47 57 68 85 77 64 65 59 65 72 76 68 50 52 45 42 47 52 51 51 43 57
26 23 25 24 24 27 31 34 36 38 39 39 38 39 30 19 20 26 28 29 29 39 41 52 52 68 85 68 59 59 54 61 68 57 61 53 48 45 46 48 55 45 49 55
26 25 25 22 25 30 33 35 35 36 34 33 36 37 28 22 14 17 21 20 33 39 41 43 47 54 67 78 63 57 57 57 62 62 56 50 44 39 47 41 40 42 43 55
27 17 19 23 29 34 32 28 32 35 34 35 35 31 31 30 26 28 24 20 21 25 37 43 40 43 56 76 71 59 57 60 58 61 55 52 47 38 36 37 36 39 29 50
20 7 12 24 29 33 31 30 30 33 33 39 36 34 30 29 26 25 29 30 26 27 31 40 38 35 43 61 79 63 60 57 58 63 61 54 46 38 40 40 37 39 47 24
25 17 13 23 27 27 28 29 30 30 34 39 33 31 30 27 25 27 29 32 27 29 31 33 33 34 39 48 76 73 61 59 58 62 63 57 49 45 42 40 39 33 30 23
29 27 17 19 25 21 25 25 30 29 28 32 33 27 26 23 23 24 26 34 33 31 33 36 38 35 38 40 63 79 65 62 60 61 68 62 53 48 42 37 35 30 28 16
27 29 25 21 26 23 21 25 26 24 28 32 34 32 27 27 22 23 23 30 31 34 34 36 37 39 39 40 49 74 79 63 61 61 68 63 57 49 42 36 29 24 18 23
27 25 28 16 20 25 30 29 29 28 30 30 37 30 32 26 22 26 25 25 36 33 34 37 38 34 36 42 45 59 81 64 61 62 68 67 60 52 38 35 29 23 26 28
27 24 27 28 28 30 32 26 25 28 33 32 29 24 21 29 33 26 28 30 33 34 34 35 35 38 41 38 46 55 67 73 61 62 67 65 54 45 38 36 30 28 26 25
27 30 28 24 30 32 31 31 26 29 30 34 31 37 32 29 28 27 29 32 32 32 37 36 38 38 41 41 48 54 64 82 66 61 67 61 50 46 39 38 34 31 28 25
24 26 29 27 33 33 23 19 21 23 26 31 32 34 35 27 28 27 26 29 30 32 35 36 40 44 50 49 52 52 63 79 75 70 65 57 48 48 43 37 35 28 27 33
26 26 31 29 35 27 16 17 18 19 24 31 34 35 30 20 22 22 24 27 28 30 30 39 40 43 49 52 54 49 63 70 80 70 65 56 52 49 43 39 32 29 24 35
25 27 31 33 33 23 17 18 18 17 22 27 29 28 22 18 14 17 17 20 26 29 24 30 29 38 40 43 49 48 62 70 82 71 64 61 53 48 41 38 34 32 42 54
25 26 31 34 32 22 21 20 20 20 14 23 27 19 19 16 13 18 15 19 22 15 26 25 30 37 45 42 43 47 61 69 78 76 70 59 52 45 42 38 35 37 48 52
26 25 30 33 36 25 18 21 22 21 21 27 30 21 13 8 8 14 17 10 10 14 18 21 30 41 42 44 48 46 61 72 74 67 65 57 47 43 39 37 35 43 48 40
24 24 28 33 31 23 18 20 24 24 21 27 26 13 10 9 12 7 7 6 10 7 17 28 42 38 37 49 45 49 61 67 66 65 59 49 48 45 39 37 36 45 26 25
24 25 28 26 22 18 17 18 18 19 19 24 13 5 8 10 12 11 10 4 7 4 38 46 34 47 33 48 44 44 60 65 61 60 53 51 46 42 39 35 41 45 14 15
21 24 28 27 25 21 17 15 19 16 19 12 3 4 11 9 6 14 11 10 16 24 41 37 40 44 41 45 42 44 61 59 55 52 49 46 43 42 50 45 36 29 21 14
20 24 28 25 22 20 14 13 13 13 12 7 7 11 17 15 8 6 15 17 22 33 43 34 35 46 46 45 47 49 62 53 57 54 45 51 54 56 44 41 33 25 19 13
22 27 29 23 21 14 9 11 11 12 10 7 16 15 10 9 24 18 32 29 42 42 40 38 42 44 39 39 39 46 30 38 39 43 44 60 58 41 36 30 25 22 18 17
20 25 29 20 14 7 5 7 9 7 6 14 12 14 10 10 7 9 32 42 45 47 44 40 43 47 39 42 35 38 28 33 45 52 57 47 45 38 33 28 23 21 23 18
Wind_Direction
304 280 256 257 262 262 265 269 268 272 278 277 275 282 286 282 272 258 249 236 229 225 222 224 229 231 230 231 224 227 231 239 240 230 197 209 209 215 221 237 248 240 243 241
305 278 263 262 261 267 273 276 272 276 275 279 278 277 282 281 283 268 249 240 229 221 222 224 226 229 229 233 231 228 225 228 230 212 198 210 214 219 226 234 243 249 245 246
301 261 255 259 257 260 268 275 282 281 274 276 281 279 278 281 277 273 258 237 230 220 221 224 222 223 225 230 233 230 228 219 207 209 200 240 239 233 232 237 241 243 243 246
296 261 257 259 263 265 266 272 277 283 284 285 278 281 272 274 278 267 249 240 230 231 224 225 225 221 222 222 230 225 217 216 230 224 233 248 237 237 236 235 236 235 243 249
297 266 259 259 265 273 279 282 285 287 288 289 286 283 280 274 261 248 238 233 231 231 230 231 229 222 218 222 225 217 225 221 223 229 231 241 232 234 242 236 249 250 253 254
303 283 267 263 270 273 277 284 285 288 291 289 289 287 272 281 259 238 245 231 225 230 237 234 234 230 222 212 217 223 207 221 226 222 229 230 226 232 235 242 245 250 248 246
300 290 287 284 279 282 286 288 292 290 283 287 289 285 278 258 251 235 241 242 236 233 240 242 239 236 230 216 212 210 209 215 224 226 223 221 223 228 235 239 244 252 257 261
290 281 279 279 286 288 288 289 289 289 292 289 285 289 280 267 259 243 238 235 237 244 240 238 239 237 231 227 208 210 206 210 216 224 220 217 218 222 229 245 241 245 262 259
325 309 293 288 291 288 294 292 291 286 287 287 290 288 286 280 257 239 243 248 236 237 236 233 234 230 234 229 217 213 207 207 212 223 223 220 219 227 234 243 242 248 254 279
318 302 296 290 280 284 293 298 296 291 289 290 292 288 287 291 285 268 246 243 239 233 236 237 235 234 230 224 226 216 207 204 212 222 225 224 222 226 229 244 236 245 251 273
308 300 310 295 281 280 288 293 296 290 290 295 295 286 290 305 283 271 248 246 241 235 229 236 238 234 232 230 220 222 208 204 206 219 227 226 225 228 233 238 236 249 247 255
308 304 309 296 287 288 285 297 294 281 283 286 294 297 309 305 304 268 261 233 227 228 233 236 236 238 234 229 221 217 219 207 205 214 228 231 230 231 233 232 240 246 253 256
316 312 310 316 303 297 289 293 288 288 283 287 286 302 301 289 284 272 243 241 228 229 234 243 240 230 228 223 227 209 218 206 204 211 224 229 232 230 229 233 235 241 245 242
315 313 307 316 314 305 300 299 298 286 287 294 296 289 293 284 280 263 247 231 231 226 234 236 236 236 228 224 223 217 212 208 204 208 218 224 222 226 226 231 232 238 236 237
313 312 307 315 313 307 302 295 280 277 288 281 289 288 293 281 271 265 257 242 238 238 227 236 237 233 228 227 216 216 208 209 202 205 215 216 217 221 224 228 231 233 238 236
303 309 311 323 318 310 311 294 285 289 287 284 291 295 296 288 287 272 255 235 238 234 238 242 231 231 228 225 214 213 208 205 206 207 212 213 218 218 224 228 228 227 235 217
303 311 313 326 322 317 300 287 288 295 301 307 307 301 303 289 286 271 255 243 246 246 252 257 241 227 219 214 212 208 204 201 206 205 209 214 222 219 224 226 222 225 251 227
309 310 313 320 328 312 299 300 303 306 305 306 318 328 321 301 276 265 253 249 255 264 238 240 225 210 198 197 204 201 195 196 205 206 212 218 217 216 223 221 220 224 217 231
313 313 311 318 327 319 295 294 295 302 314 314 324 317 312 299 270 267 284 276 263 221 245 213 201 191 196 195 183 187 185 194 204 208 213 214 212 214 221 221 230 226 237 228
310 313 314 316 320 314 287 294 298 309 324 325 325 326 323 325 307 306 296 306 215 213 219 212 197 178 177 180 169 173 182 193 201 204 208 211 211 216 219 224 228 226 220 202
309 314 317 320 317 312 288 292 305 309 317 331 330 334 4 350 356 326 351 83 156 195 235 162 145 156 165 153 162 169 184 191 195 202 206 207 212 214 220 226 226 214 180 129
317 321 325 327 327 309 305 317 311 311 318 332 326 4 354 38 60 42 95 57 115 176 125 128 131 138 138 156 152 161 183 189 195 201 204 206 206 213 215 217 200 207 145 123
318 317 325 320 319 315 310 322 317 321 330 331 359 46 56 43 33 43 55 159 157 131 136 134 133 143 156 161 158 181 187 192 196 200 201 201 206 217 214 187 148 136 141 148
316 318 323 319 315 311 317 312 325 330 344 21 129 58 50 70 51 14 131 145 167 139 136 137 141 149 155 156 174 182 192 196 191 187 193 200 221 207 170 133 133 138 143 143
317 317 325 323 320 307 330 337 345 345 324 106 99 89 85 14 50 99 105 143 131 138 140 138 146 153 152 145 155 174 174 180 174 192 191 196 179 137 126 137 146 146 136 133
311 322 327 328 321 333 339 2 352 39 110 112 100 89 109 64 44 101 116 132 129 132 132 137 144 148 151 159 159 180 170 173 173 177 188 146 120 127 137 143 133 123 124 123
Height
5689 5689 5687 5686 5685 5685 5685 5685 5684 5685 5683 5681 5680 5681 5680 5680 5679 5683 5688 5691 5700 5710 5718 5722 5727 5733 5742 5749 5765 5778 5788 5798 5809 5813 5818 5827 5832 5840 5845 5851 5853 5856 5859 5861
5683 5681 5679 5679 5679 5679 5678 5677 5678 5678 5677 5673 5672 5674 5674 5673 5673 5674 5680 5683 5688 5694 5702 5709 5718 5722 5733 5739 5749 5766 5779 5793 5803 5807 5812 5820 5824 5829 5836 5841 5846 5851 5854 5857
5676 5676 5673 5673 5674 5674 5672 5672 5672 5670 5670 5667 5663 5666 5665 5667 5667 5668 5671 5675 5677 5683 5685 5693 5703 5711 5721 5732 5739 5753 5768 5785 5791 5799 5800 5807 5818 5825 5831 5837 5841 5844 5847 5849
5672 5669 5668 5667 5668 5667 5666 5667 5664 5663 5661 5660 5658 5654 5660 5660 5659 5661 5662 5665 5671 5674 5674 5677 5686 5697 5707 5723 5730 5740 5759 5772 5778 5785 5792 5802 5814 5819 5824 5829 5832 5834 5837 5837
5668 5664 5663 5663 5662 5661 5659 5657 5656 5654 5652 5651 5649 5646 5650 5652 5650 5651 5654 5655 5662 5664 5662 5665 5672 5682 5695 5708 5719 5731 5743 5759 5770 5778 5789 5796 5807 5813 5817 5819 5824 5824 5827 5828
5659 5657 5656 5656 5656 5654 5652 5650 5649 5646 5643 5642 5640 5637 5644 5646 5643 5644 5648 5651 5653 5653 5653 5658 5663 5668 5680 5697 5706 5720 5732 5745 5758 5770 5781 5791 5799 5806 5810 5812 5815 5818 5822 5819
5655 5650 5649 5650 5649 5646 5645 5643 5639 5638 5636 5635 5632 5630 5634 5638 5637 5637 5639 5642 5645 5647 5647 5650 5656 5663 5672 5688 5699 5709 5723 5734 5746 5761 5773 5784 5791 5797 5802 5805 5807 5813 5816 5812
5645 5648 5645 5644 5642 5637 5639 5638 5633 5628 5628 5626 5624 5622 5623 5624 5629 5630 5632 5635 5639 5640 5639 5642 5647 5654 5665 5673 5690 5698 5712 5724 5737 5751 5764 5774 5781 5786 5792 5797 5800 5802 5804 5803
5638 5642 5642 5636 5635 5631 5629 5629 5629 5623 5621 5616 5617 5616 5615 5614 5617 5622 5625 5628 5631 5632 5631 5633 5638 5645 5653 5662 5678 5689 5702 5714 5727 5741 5753 5765 5775 5779 5784 5791 5795 5795 5793 5797
5640 5637 5639 5635 5630 5627 5624 5623 5620 5617 5611 5607 5608 5606 5604 5607 5607 5609 5614 5616 5621 5625 5625 5627 5632 5637 5642 5653 5666 5679 5692 5705 5720 5733 5744 5756 5765 5770 5778 5784 5791 5794 5795 5796
5633 5631 5634 5629 5623 5623 5620 5616 5612 5608 5606 5600 5597 5597 5597 5599 5598 5598 5601 5606 5610 5614 5616 5617 5622 5628 5634 5639 5651 5669 5681 5693 5709 5724 5736 5747 5757 5764 5772 5780 5785 5789 5789 5794
5628 5623 5623 5622 5616 5615 5612 5609 5606 5602 5600 5595 5592 5588 5592 5590 5588 5588 5591 5595 5598 5603 5607 5610 5614 5620 5625 5630 5639 5655 5670 5685 5701 5716 5729 5740 5751 5758 5767 5774 5778 5779 5784 5788
5622 5619 5613 5616 5613 5609 5605 5602 5598 5595 5591 5589 5584 5583 5581 5580 5580 5579 5577 5582 5588 5595 5599 5601 5606 5611 5617 5623 5627 5642 5658 5676 5692 5706 5721 5733 5745 5754 5764 5769 5773 5775 5779 5782
5614 5615 5611 5608 5604 5601 5596 5594 5590 5588 5583 5580 5576 5571 5574 5571 5568 5569 5571 5572 5577 5582 5587 5590 5595 5600 5607 5614 5618 5630 5645 5665 5683 5697 5712 5726 5742 5752 5758 5763 5768 5772 5775 5778
5611 5608 5605 5604 5598 5592 5588 5584 5583 5579 5577 5571 5570 5565 5564 5562 5560 5559 5560 5562 5566 5571 5576 5579 5583 5589 5596 5604 5611 5621 5634 5655 5673 5689 5705 5721 5736 5746 5752 5757 5764 5769 5771 5771
5608 5603 5599 5598 5590 5583 5580 5576 5575 5573 5569 5564 5561 5558 5553 5551 5550 5550 5547 5549 5554 5559 5563 5566 5570 5576 5583 5592 5603 5613 5625 5644 5666 5684 5700 5716 5730 5739 5746 5754 5761 5763 5764 5766
5602 5597 5593 5591 5583 5577 5575 5571 5569 5567 5563 5557 5553 5548 5544 5543 5540 5540 5540 5541 5545 5548 5550 5550 5552 5559 5566 5578 5593 5603 5615 5635 5660 5680 5695 5710 5724 5733 5741 5749 5754 5756 5756 5761
5597 5593 5589 5584 5578 5574 5570 5567 5565 5563 5559 5553 5547 5540 5537 5535 5535 5533 5531 5533 5534 5536 5538 5538 5541 5549 5558 5571 5583 5594 5610 5631 5653 5675 5691 5709 5720 5729 5737 5743 5746 5751 5755 5754
5593 5589 5583 5578 5574 5570 5565 5563 5560 5556 5558 5548 5543 5538 5533 5528 5527 5524 5525 5524 5525 5525 5523 5526 5533 5541 5552 5567 5580 5591 5608 5629 5649 5672 5692 5707 5716 5724 5729 5735 5741 5745 5747 5748
5588 5585 5581 5575 5569 5564 5561 5558 5554 5552 5549 5543 5537 5533 5529 5525 5523 5522 5518 5515 5515 5514 5515 5519 5530 5538 5550 5567 5581 5591 5609 5628 5651 5672 5688 5699 5710 5716 5725 5729 5737 5737 5738 5740
5585 5581 5576 5570 5563 5560 5556 5555 5552 5549 5549 5541 5535 5531 5527 5524 5521 5518 5514 5514 5513 5515 5513 5516 5528 5543 5557 5568 5577 5592 5613 5634 5654 5670 5682 5694 5704 5711 5718 5727 5732 5734 5736 5740
5580 5575 5572 5567 5561 5557 5555 5553 5549 5546 5542 5539 5535 5530 5526 5521 5519 5516 5515 5519 5522 5518 5518 5526 5537 5552 5563 5581 5591 5605 5622 5639 5655 5668 5680 5691 5699 5706 5715 5724 5724 5729 5734 5739
5577 5573 5569 5564 5558 5554 5553 5550 5546 5542 5540 5537 5533 5531 5526 5524 5523 5522 5523 5527 5533 5534 5536 5544 5554 5562 5578 5590 5603 5615 5629 5643 5655 5667 5676 5687 5692 5704 5712 5712 5720 5728 5736 5743
5573 5568 5565 5560 5556 5552 5551 5548 5544 5541 5540 5536 5533 5533 5530 5529 5526 5522 5525 5531 5537 5546 5551 5558 5567 5577 5586 5595 5607 5619 5632 5643 5651 5665 5676 5687 5693 5700 5705 5716 5726 5731 5738 5745
5569 5564 5560 5555 5551 5549 5549 5547 5543 5541 5539 5537 5535 5535 5534 5534 5533 5533 5534 5538 5546 5554 5562 5570 5578 5588 5596 5604 5614 5623 5631 5638 5651 5666 5676 5682 5691 5699 5709 5719 5727 5733 5737 5743
5566 5561 5555 5551 5548 5548 5548 5547 5544 5542 5540 5539 5540 5540 5539 5540 5542 5540 5548 5553 5556 5565 5573 5582 5588 5597 5605 5612 5620 5629 5636 5646 5656 5664 5673 5683 5692 5702 5712 5722 5728 5732 5740 5746